Regional Weather Roundup
Issued by NWS

Home | Current Version | Previous Version | Text Only | Print | Product List | Glossary On
Versions: 1 2 3 4 5 6 7 8 9 10 11 12 13 14 15 16 17 18 19 20 21 22 23 24 25 26 27 28 29 30 31 32 33 34 35 36 37 38 39 40 41 42 43 44 45 46 47 48 49 50
000
ASUS46 KLOX 291612
RWRCA

SOUTHERN CALIFORNIA WEATHER ROUNDUP
NATIONAL WEATHER SERVICE OXNARD CALIFORNIA
800 AM PST THU JAN 29 2015

NOTE: "FAIR" INDICATES FEW OR NO CLOUDS BELOW 12,000 FEET WITH NO
SIGNIFICANT WEATHER AND/OR OBSTRUCTIONS TO VISIBILITY.

  -  STATIONS PRECEEDED BY AN ASTERISK (*) ARE NOT NWS OR FAA
     STATIONS AND ARE NOT SUBJECT TO NWS AND FAA QUALITY CONTROL.

CAZ041-042-087-291700-
LA AND ORANGE COUNTY COASTAL AREAS


CITY           SKY/WX    TMP DP  RH WIND       PRES   REMARKS
L.A. DOWNTOWN  CLOUDY    64  44  48 CALM      30.04R
L.A. AIRPORT   CLOUDY    62  45  53 E6        30.04R
LONG BEACH     CLOUDY    62  47  57 CALM      30.04R

CITY           SKY/WX    TMP DP  RH WIND       PRES   REMARKS
AVALON           N/A     59 N/A N/A MISG        N/A
FULLERTON      CLOUDY    62  46  55 CALM      30.03R
HAWTHORNE      CLOUDY    65  44  46 CALM      30.04R
*LEO CARRILLO    N/A     69  39  32 E9          N/A
*LOS ALAMITOS  CLOUDY    61  48  63 N8        30.03S
*REDONDO BEACH   N/A     58  48  70 CALM      30.05R
SANTA ANA      CLOUDY    64  50  60 CALM      30.03R
STA MONICA APT CLOUDY    63  45  51 E3        30.04R
*STA MON PIER    N/A     64  47  53 N2        30.03R
TORRANCE       PTSUNNY   61  50  67 CALM      30.05R
*UCLA            N/A     63  43  48 E5        30.02R

$$

CAZ547-548-048-291700-
LA COUNTY VALLEYS AND INLAND EMPIRE


CITY           SKY/WX    TMP DP  RH WIND       PRES   REMARKS
BURBANK        CLOUDY    59  43  55 CALM      30.05R
VAN NUYS       CLOUDY    63  42  46 SE6       30.05R

CITY           SKY/WX    TMP DP  RH WIND       PRES   REMARKS
CORONA AIRPORT CLOUDY    66  42  41 SE9       30.06R
CHINO          CLOUDY    56  51  84 N3        30.07R
MARCH AFB      CLOUDY    59  43  55 NE10      30.08R
*NORTHRIDGE      N/A     66  36  32 N7G16       N/A
ONTARIO        CLOUDY    58  44  60 W5        30.05R
*PASADENA        N/A     63  45  51 CALM        N/A
POMONA         SUNNY     55  45  67 CALM      30.08
RIVERSIDE      CLOUDY    61  44  53 E6        30.07R
SAN BERNARDINO CLOUDY    54  43  66 E5        30.08R
*SAN RAFAEL HI   N/A     61  31  32 W3          N/A
*SAUGUS          N/A     59  42  53 N7          N/A
*WHITEMAN AP   CLOUDY    61  39  44 CALM      30.08
*WHITTIER HILL   N/A     66  40  38 NE2         N/A
*WOODLAND HILL   N/A     63  43  48 S5          N/A

$$

CAZ054-055-291700-
LA AND SAN BERNARDINO COUNTY MOUNTAINS


CITY           SKY/WX    TMP DP  RH WIND       PRES   REMARKS
*BIG BEAR AIRP CLOUDY    34  32  93 CALM      30.23S
*CHILAO          N/A     49  30  48 NE24        N/A
MT WILSON NWS    N/A     48  25  40 NE7         N/A
SANDBERG       CLOUDY    50  37  61 E22       30.18R
*WARM SPRINGS    N/A     50  37  61 NE21G32     N/A

$$

CAZ028-029-059-060-099-291700-
ANTELOPE VALLEY AND SURROUNDING AREAS


CITY           SKY/WX    TMP DP  RH WIND       PRES   REMARKS
LANCASTER      CLOUDY    48  44  86 CALM      30.19R
PALMDALE       CLOUDY    48  46  93 S3        30.18R
*POPPY PARK      N/A     50  46  87 CALM        N/A

CITY           SKY/WX    TMP DP  RH WIND       PRES   REMARKS
29 PALMS       CLOUDY    52  45  77 NW3       30.22R
BARSTOW/DAGGET CLOUDY    52  45  77 W10       30.17S
BISHOP         MOCLDY    40  30  67 NW5       30.25R
CHINA LAKE     CLOUDY    50  47  89 CALM      30.18R
EDWARDS AFB    CLOUDY    47  47 100 CALM      30.16R
MOJAVE         FAIR      50  45  81 CALM      30.19R
NEEDLES        CLOUDY    62  45  53 NW5       30.11R
VICTORVILLE    CLOUDY    48  45  87 CALM      30.18S

$$

CAZ039-040-291700-
VENTURA AND SANTA BARBARA COUNTY COAST


CITY           SKY/WX    TMP DP  RH WIND       PRES   REMARKS
CAMARILLO      CLOUDY    66  44  45 W5        30.04R
NWS OXNARD       N/A     60  46  60 CALM      30.04R
OXNARD AIRPORT CLOUDY    60  49  66 NW5       30.04S
*POINT MUGU    CLOUDY    66  47  50 N7        30.05R
SBA APT/GOLETA CLOUDY    56  50  80 CALM      30.04R
*SANTA BARBARA   N/A     59  48  67 CALM      30.13R
*VENTURA         N/A     61  42  50 CALM      30.08S

$$

CAZ044-045-291700-
VENTURA COUNTY VALLEYS


CITY           SKY/WX    TMP DP  RH WIND       PRES   REMARKS
*SIMI VALLEY     N/A     65  43  45 E18       30.02S
*OJAI            N/A     53  48  85 CALM      30.04R

$$

CAZ053-291700-
VENTURA COUNTY MOUNTAINS


CITY           SKY/WX    TMP DP  RH WIND       PRES   REMARKS
*LOCKWOOD VLY    N/A     43  36  75 MISG        N/A
*ROSE VALLEY     N/A     46  46 100 MISG        N/A

$$

CAZ034-035-036-291700-
CENTRAL COAST AND SANTA YNEZ VALLEY


CITY           SKY/WX    TMP DP  RH WIND       PRES   REMARKS
SAN LUIS OBISP MOCLDY    45  42  89 CALM      30.08S
SANTA MARIA    MOCLDY    51  46  83 E3        30.09R

CITY           SKY/WX    TMP DP  RH WIND       PRES   REMARKS
*CAL POLY SLO    N/A     55  46  71 W3G13       N/A
*LOMPOC        MOCLDY    48  43  81 E6        30.08S
*PISMO BEACH     N/A     50  46  88 NE2       30.09R
*SANTA YNEZ    FAIR      48  45  87 CALM      30.09R

$$

CAZ037-038-051-291700-
SAN LUIS OBISPO COUNTY INTERIOR AND CUYAMA VALLEY


CITY           SKY/WX    TMP DP  RH WIND       PRES   REMARKS
*CUYAMA          N/A     46  44  93 CALM      30.11S
PASO ROBLES    FOG       39  38  96 CALM      30.15R VSB 1/4

$$

CAZ032-033-061-291700-
SOUTHERN DESERTS


CITY           SKY/WX    TMP DP  RH WIND       PRES   REMARKS
BLYTHE         CLOUDY    60  50  69 S5        30.10R
IMPERIAL       CLOUDY    59  51  75 NW3       30.07R
PALM SPRINGS   CLOUDY    65  40  39 W6        30.11R
THERMAL        CLOUDY    60  47  61 N3        30.06R

$$

ELSEWHERE ACROSS THE WESTERN UNITED STATES AND MEXICO


CITY           SKY/WX    TMP DP  RH WIND       PRES   REMARKS
DENVER, CO     CLOUDY    37  26  64 NE9       30.50R WCI  30
GRAND CANYON,  CLOUDY    41  29  62 E10       30.29R WCI  35
HONOLULU, HI   MOCLDY    75  66  73 S6        29.88S
KAHULUI, MAUI  CLEAR     61  57  88 S5        29.92R
LAKE TAHOE, CA CLEAR     25  20  81 CALM      30.26R
LAS VEGAS, NV  CLOUDY    56  43  61 S8        30.15R
MAMMOTH LAKES, CLOUDY    27  23  86 CALM      30.29R
MEXICO CITY, M SUNNY     59  37  44 E2        30.41R
PHOENIX, AZ    CLOUDY    61  47  59 E5        30.06R
PORTLAND, OR   FOG       43  43 100 CALM      30.33S VSB 1/8
RENO, NV       PTCLDY    32  27  81 CALM      30.29R
SALT LAKE CITY MOSUNNY   31  30  96 CALM      30.36S
SAN DIEGO, CA  CLOUDY    63  45  51 CALM      30.05R
SAN FRANCISCO, CLOUDY    53  53 100 CALM      30.16R FOG
SAN JOSE, CA   FOG       46  46 100 CALM      30.15S VSB 1/8
SEATTLE, WA    MOCLDY    38  37  97 N6        30.35S WCI  33
TIJUANA, MEX   CLOUDY    66  39  37 E6        30.07

$$

STATION/POSITION TIME  TEMP    WIND        PRES    VSBY  WAVE
                       AIR SEA DIR/SP/G                  HT/PER
                 (UTC) (F)     (DEG/KT/KT) (MB)    (MI)  (FT/S)
POINT ARGUELLO B NOT AVBL
WEST SANTA BARBA 1600   60 60  320/ 12/ 14 1016.9R         5/13
POINT CONCEPTION NOT AVBL
EAST SANTA BARBA NOT AVBL
SANTA MONICA BAY 1600   65 62  270/  4/  6 1017.3R         4/13


USA.gov is the U.S. government's official web portal to all federal, state and local government web resources and services.